| time (UTC) | temp F | wind direction | speed knots | gust knots | rain 1hr in | rain 24hr in | rain mn in | humidity % | barometer mb |
| 20260502190043 | 72 | 25 | 3.5 | 10.4 | 0.00 | 1.47 | 0.02 | 52 | 1018.6 |
| 20260502184553 | 71 | 347 | 2.6 | 11.3 | 0.00 | 1.83 | 0.02 | 55 | 1018.6 |
| 20260502183056 | 71 | 67 | 6.1 | 17.4 | 0.00 | 1.83 | 0.02 | 52 | 1018.8 |
| 20260502181545 | 71 | 325 | 4.3 | 13.9 | 0.00 | 1.83 | 0.02 | 54 | 1018.9 |
| 20260502163050 | 68 | 307 | 5.2 | 11.3 | 0.00 | 1.93 | 0.02 | 68 | 1019.6 |
| 20260502161544 | 67 | 63 | 3.5 | 10.4 | 0.00 | 1.93 | 0.02 | 74 | 1019.6 |
| 20260502151556 | 64 | 310 | 2.6 | 8.7 | 0.00 | 1.99 | 0.02 | 82 | 1019.4 |
| 20260502123045 | 52 | 165 | 1.7 | 5.2 | 0.00 | 2.32 | 0.02 | 99 | 1017.6 |
| 20260502121542 | 52 | 298 | 1.7 | 7.0 | 0.00 | 2.32 | 0.02 | 98 | 1017.3 |
| 20260502114545 | 50 | 221 | 0.9 | 3.5 | 0.00 | 2.49 | 0.02 | 98 | 1017.0 |
| 20260502113048 | 50 | 338 | 0.9 | 2.6 | 0.00 | 2.49 | 0.02 | 98 | 1016.7 |
| 20260502111540 | 51 | 300 | 0.9 | 2.6 | 0.00 | 2.49 | 0.02 | 98 | 1016.8 |
| 20260502110044 | 51 | 111 | 0.9 | 3.5 | 0.00 | 2.49 | 0.02 | 98 | 1016.6 |
| 20260502104549 | 51 | 265 | 0.9 | 3.5 | 0.00 | 2.56 | 0.02 | 98 | 1016.4 |
| 20260502103041 | 51 | 340 | 0.9 | 4.3 | 0.00 | 2.56 | 0.02 | 98 | 1016.1 |
| 20260502101609 | 51 | 26 | 1.7 | 5.2 | 0.00 | 2.56 | 0.02 | 98 | 1015.9 |
| 20260502070053 | 51 | 25 | 1.7 | 8.7 | 0.00 | 2.72 | 0.02 | 99 | 1015.8 |
| 20260502064539 | 51 | 17 | 1.7 | 9.6 | 0.01 | 2.72 | 0.02 | 99 | 1015.9 |
| 20260502063053 | 51 | 41 | 1.7 | 7.8 | 0.01 | 2.72 | 0.02 | 99 | 1016.1 |
| 20260502061543 | 51 | 309 | 1.7 | 7.0 | 0.02 | 2.72 | 0.02 | 99 | 1016.2 |
| 20260502060041 | 52 | 23 | 1.7 | 10.4 | 0.02 | 2.72 | 0.02 | 99 | 1016.1 |
| 20260502054541 | 52 | 319 | 3.5 | 11.3 | 0.04 | 2.71 | 0.01 | 99 | 1015.5 |
| 20260502053037 | 52 | 36 | 1.7 | 7.8 | 0.05 | 2.71 | 0.01 | 99 | 1015.6 |
| 20260502051603 | 52 | 19 | 1.7 | 6.1 | 0.04 | 2.70 | 0.00 | 99 | 1015.7 |
| 20260502050045 | 53 | 334 | 2.6 | 10.4 | 0.05 | 2.70 | 0.00 | 99 | 1015.5 |
| 20260502044545 | 53 | 265 | 1.7 | 8.7 | 0.02 | 2.67 | 2.67 | 99 | 1014.6 |
| 20260502043039 | 53 | 59 | 1.7 | 9.6 | 0.02 | 2.66 | 2.66 | 99 | 1014.9 |
| 20260502041540 | 54 | 55 | 2.6 | 7.8 | 0.06 | 2.66 | 2.66 | 99 | 1015.1 |
| 20260502040055 | 54 | 90 | 2.6 | 8.7 | 0.08 | 2.65 | 2.65 | 99 | 1014.9 |
| 20260502034544 | 54 | 342 | 2.6 | 7.0 | 0.09 | 2.65 | 2.65 | 99 | 1014.6 |
| 20260502033048 | 54 | 46 | 1.7 | 11.3 | 0.09 | 2.64 | 2.64 | 99 | 1014.9 |
| 20260502031542 | 54 | 15 | 2.6 | 7.8 | 0.06 | 2.60 | 2.60 | 99 | 1015.1 |
| 20260502030044 | 54 | 279 | 3.5 | 10.4 | 0.05 | 2.57 | 2.57 | 99 | 1014.8 |
| 20260502024543 | 54 | 61 | 1.7 | 7.0 | 0.05 | 2.56 | 2.56 | 99 | 1013.9 |
| 20260502023055 | 54 | 302 | 3.5 | 8.7 | 0.04 | 2.55 | 2.55 | 99 | 1013.3 |
| 20260502021542 | 54 | 9 | 2.6 | 8.7 | 0.03 | 2.54 | 2.54 | 99 | 1013.5 |
| 20260502020048 | 54 | 13 | 2.6 | 9.6 | 0.01 | 2.52 | 2.52 | 99 | 1013.2 |
| 20260502014538 | 54 | 341 | 1.7 | 10.4 | 0.00 | 2.51 | 2.51 | 99 | 1013.0 |
| 20260502013058 | 54 | 34 | 2.6 | 10.4 | 0.00 | 2.51 | 2.51 | 99 | 1012.6 |
| 20260502011547 | 54 | 130 | 2.6 | 9.6 | 0.00 | 2.51 | 2.51 | 99 | 1012.0 |
| 20260502010044 | 55 | 288 | 3.5 | 12.2 | 0.01 | 2.51 | 2.51 | 99 | 1012.0 |
| 20260502004546 | 55 | 341 | 3.5 | 10.4 | 0.05 | 2.51 | 2.51 | 99 | 1011.6 |
| 20260502003039 | 55 | 327 | 2.6 | 11.3 | 0.08 | 2.51 | 2.51 | 99 | 1011.6 |
| 20260502001603 | 56 | 325 | 3.5 | 11.3 | 0.13 | 2.51 | 2.51 | 99 | 1011.3 |
| 20260502000044 | 57 | 309 | 2.6 | 9.6 | 0.21 | 2.50 | 2.50 | 99 | 1011.7 |
| 20260501234550 | 57 | 347 | 1.7 | 7.0 | 0.25 | 2.45 | 2.45 | 99 | 1011.7 |
| 20260501233053 | 57 | 30 | 1.7 | 7.8 | 0.35 | 2.43 | 2.43 | 99 | 1011.0 |
| 20260501231542 | 57 | 72 | 1.7 | 5.2 | 0.40 | 2.36 | 2.36 | 99 | 1012.5 |
| 20260501230039 | 57 | 9 | 1.7 | 8.7 | 0.43 | 2.29 | 2.29 | 99 | 1013.1 |
| 20260501224538 | 57 | 325 | 2.6 | 5.2 | 0.40 | 2.19 | 2.19 | 99 | 1012.7 |
| 20260501223044 | 57 | 309 | 0.9 | 3.5 | 0.35 | 2.07 | 2.07 | 99 | 1012.9 |
| 20260501221543 | 57 | 51 | 1.7 | 5.2 | 0.33 | 1.96 | 1.96 | 99 | 1012.7 |
| 20260501220114 | 57 | 49 | 2.6 | 7.0 | 0.35 | 1.86 | 1.86 | 99 | 1011.7 |
| 20260501214541 | 58 | 74 | 1.7 | 7.8 | 0.36 | 1.80 | 1.79 | 99 | 1011.6 |
| 20260501213039 | 58 | 119 | 0.9 | 3.5 | 0.34 | 1.73 | 1.72 | 99 | 1011.7 |
| 20260501211545 | 58 | 0 | 0.9 | 7.8 | 0.29 | 1.64 | 1.63 | 99 | 1011.0 |
| 20260501204548 | 58 | 310 | 1.7 | 8.7 | 0.11 | 1.44 | 1.43 | 99 | 1010.0 |
| 20260501203043 | 58 | 344 | 2.6 | 11.3 | 0.07 | 1.39 | 1.38 | 99 | 1010.1 |
| 20260501201542 | 58 | 54 | 3.5 | 10.4 | 0.05 | 1.35 | 1.34 | 99 | 1011.1 |
| 20260501200037 | 58 | 40 | 2.6 | 8.7 | 0.07 | 1.34 | 1.33 | 99 | 1010.9 |
| 20260501194539 | 58 | 38 | 3.5 | 9.6 | 0.11 | 1.33 | 1.32 | 99 | 1010.9 |
| 20260501193045 | 58 | 76 | 2.6 | 9.6 | 0.17 | 1.32 | 1.31 | 99 | 1011.6 |
| 20260501191543 | 58 | 9 | 3.5 | 8.7 | 0.24 | 1.30 | 1.29 | 99 | 1011.4 |